Belen, NM

6:37 AM MST on January 23, 2017 (GMT -0700)
Belen

Weather History for KE80 - October, 2012

Change the Weather History Date:

Saturday, October 13, 2012

  Actual Average (KABQ) Record (KABQ)
Temperature  
Mean Temperature 56 °F -  
Max Temperature 69 °F 72 °F 86 °F (2015)
Min Temperature 43 °F 45 °F 27 °F (1915)
Degree Days  
Heating Degree Days 9    
Growing Degree Days 6 (Base 50)    
Moisture  
Dew Point 30 °F    
Average Humidity 38    
Maximum Humidity 59    
Minimum Humidity 20    
Precipitation  
Precipitation 0.00 in - - ()
Sea Level Pressure  
Sea Level Pressure 30.15 in    
Wind  
Wind Speed 8 mph (NW)    
Max Wind Speed 20 mph    
Max Gust Speed 29 mph    
Visibility 10 miles    
Events      
Averages and records for this station are not official NWS values.
T = Trace of Precipitation, MM = Missing Value Source: NWS Daily Summary

Daily Weather History Graph

Daily Weather History Graph

Search for Another Location

Airport or City:

Trip Planner

Search our weather history database for the weather conditions in past years. The results will help you decide how hot, cold, wet, or windy it might be!

Date:

Astronomy

Oct. 13, 2012 Rise Set
Actual Time 7:11 AM MDT 6:34 PM MDT
Civil Twilight 6:46 AM MDT 6:59 PM MDT
Nautical Twilight 6:17 AM MDT 7:29 PM MDT
Astronomical Twilight 5:47 AM MDT 7:58 PM MDT
Moon 5:08 AM MDT (10/13) 5:17 PM MDT (10/13)
Length of Visible Light 12h 13m
Length of Day
11h 22m
Waning Crescent, 4% of the Moon is Illuminated
Oct 13
Waning Crescent
Oct 15
New
Oct 21
First Quarter
Oct 29
Full
Nov 6
Last Quarter

Hourly Weather History & Observations

Time (MDT) Temp. Windchill Dew Point Humidity Pressure Visibility Wind Dir Wind Speed Gust Speed Precip Events Conditions
12:35 AM 46.6 °F - 25.9 °F 44% 30.10 in 10.0 mi SSW 3.5 mph - N/A   Clear
12:55 AM 51.8 °F - 25.7 °F 36% 30.11 in 10.0 mi Calm Calm - N/A   Clear
1:15 AM 53.6 °F - 26.2 °F 35% 30.11 in 10.0 mi Calm Calm - N/A   Clear
1:35 AM 53.4 °F - 26.6 °F 36% 30.11 in 10.0 mi NE 3.5 mph - N/A   Clear
1:55 AM 52.3 °F - 27.0 °F 37% 30.11 in 10.0 mi Calm Calm - N/A   Clear
2:15 AM 50.0 °F - 28.9 °F 44% 30.12 in 10.0 mi West 6.9 mph - N/A   Clear
2:35 AM 51.1 °F - 29.1 °F 43% 30.12 in 10.0 mi WNW 10.4 mph - N/A   Clear
2:55 AM 51.3 °F - 29.1 °F 43% 30.12 in 10.0 mi West 12.7 mph - N/A   Clear
3:15 AM 50.9 °F - 29.1 °F 43% 30.12 in 10.0 mi West 12.7 mph - N/A   Clear
3:35 AM 50.7 °F - 29.1 °F 43% 30.12 in 10.0 mi West 15.0 mph - N/A   Clear
4:35 AM 46.4 °F 42.4 °F 29.1 °F 51% 30.14 in 10.0 mi SW 8.1 mph - N/A   Clear
4:55 AM 45.5 °F 41.3 °F 29.3 °F 53% 30.14 in 10.0 mi SW 8.1 mph - N/A   Clear
5:15 AM 43.3 °F 37.7 °F 28.9 °F 57% 30.14 in 10.0 mi WSW 10.4 mph - N/A   Clear
5:35 AM 44.1 °F 39.5 °F 29.1 °F 56% 30.14 in 10.0 mi WSW 8.1 mph - N/A   Clear
5:55 AM 43.9 °F 38.8 °F 29.3 °F 57% 30.15 in 10.0 mi WSW 9.2 mph - N/A   Clear
6:15 AM 44.4 °F 39.5 °F 29.8 °F 57% 30.15 in 10.0 mi West 9.2 mph - N/A   Clear
6:55 AM 43.7 °F 38.1 °F 29.7 °F 58% 30.15 in 10.0 mi WSW 10.4 mph - N/A   Clear
7:15 AM 43.2 °F 38.4 °F 29.8 °F 59% 30.16 in 10.0 mi West 8.1 mph - N/A   Clear
7:55 AM 46.0 °F 43.1 °F 30.9 °F 56% 30.17 in 10.0 mi SW 5.8 mph - N/A   Clear
8:55 AM 50.9 °F - 32.2 °F 49% 30.18 in 10.0 mi SW 10.4 mph - N/A   Clear
9:15 AM 52.5 °F - 32.5 °F 47% 30.19 in 10.0 mi SW 8.1 mph - N/A   Clear
9:55 AM 55.8 °F - 32.0 °F 41% 30.19 in 10.0 mi WNW 11.5 mph - N/A   Clear
10:15 AM 56.8 °F - 31.3 °F 38% 30.19 in 10.0 mi NNW 11.5 mph 17.3 mph N/A   Clear
10:35 AM 57.2 °F - 30.7 °F 37% 30.19 in 10.0 mi NW 10.4 mph - N/A   Clear
10:55 AM 57.6 °F - 30.2 °F 35% 30.19 in 10.0 mi WNW 12.7 mph 16.1 mph N/A   Clear
11:15 AM 58.8 °F - 30.0 °F 34% 30.18 in 10.0 mi WNW 9.2 mph - N/A   Clear
11:35 AM 60.1 °F - 28.2 °F 30% 30.18 in 10.0 mi NW 15.0 mph - N/A   Clear
11:55 AM 61.0 °F - 28.2 °F 29% 30.16 in 10.0 mi NW 12.7 mph 21.9 mph N/A   Clear
12:15 PM 63.0 °F - 28.0 °F 27% 30.16 in 10.0 mi WNW 12.7 mph 20.7 mph N/A   Clear
12:35 PM 62.8 °F - 27.9 °F 27% 30.15 in 10.0 mi WNW 10.4 mph 17.3 mph N/A   Clear
12:55 PM 64.0 °F - 28.6 °F 26% 30.14 in 10.0 mi WNW 13.8 mph 21.9 mph N/A   Clear
1:15 PM 64.9 °F - 28.9 °F 26% 30.13 in 10.0 mi NW 19.6 mph 25.3 mph N/A   Clear
1:35 PM 65.1 °F - 28.9 °F 26% 30.13 in 10.0 mi NW 17.3 mph 24.2 mph N/A   Clear
1:55 PM 66.0 °F - 28.8 °F 25% 30.12 in 10.0 mi NW 11.5 mph 28.8 mph N/A   Clear
2:35 PM 67.1 °F - 28.0 °F 23% 30.11 in 10.0 mi NNW 13.8 mph 17.3 mph N/A   Clear
2:55 PM 67.8 °F - 28.4 °F 23% 30.11 in 10.0 mi NW 11.5 mph 17.3 mph N/A   Clear
3:15 PM 68.4 °F - 28.8 °F 23% 30.11 in 10.0 mi NNW 9.2 mph - N/A   Clear
3:55 PM 69.3 °F - 26.6 °F 20% 30.11 in 10.0 mi NW 12.7 mph 21.9 mph N/A   Clear
4:35 PM 69.4 °F - 26.6 °F 20% 30.10 in 10.0 mi WNW 12.7 mph 19.6 mph N/A   Clear
4:55 PM 69.8 °F - 27.1 °F 20% 30.10 in 10.0 mi WNW 11.5 mph 17.3 mph N/A   Clear
5:15 PM 69.1 °F - 28.2 °F 22% 30.10 in 10.0 mi West 11.5 mph - N/A   Clear
5:35 PM 68.2 °F - 28.4 °F 23% 30.11 in 10.0 mi WNW 11.5 mph - N/A   Clear
5:55 PM 67.8 °F - 28.9 °F 23% 30.11 in 10.0 mi WNW 10.4 mph - N/A   Clear
6:15 PM 66.6 °F - 29.8 °F 25% 30.12 in 10.0 mi WNW 6.9 mph - N/A   Clear
6:35 PM 64.6 °F - 30.0 °F 27% 30.14 in 10.0 mi North 8.1 mph - N/A   Clear
7:15 PM 60.1 °F - 30.0 °F 32% 30.16 in 10.0 mi NNE 6.9 mph - N/A   Clear
8:35 PM 56.3 °F - 31.6 °F 39% 30.19 in 10.0 mi North 6.9 mph - N/A   Clear
8:55 PM 54.5 °F - 32.0 °F 42% 30.20 in 10.0 mi NE 5.8 mph - N/A   Clear
9:15 PM 55.6 °F - 32.4 °F 41% 30.21 in 10.0 mi North 5.8 mph - N/A   Clear
9:35 PM 55.0 °F - 32.4 °F 42% 30.22 in 10.0 mi NE 4.6 mph - N/A   Clear
9:55 PM 56.1 °F - 33.1 °F 42% 30.22 in 10.0 mi NNE 9.2 mph - N/A   Clear
10:15 PM 54.5 °F - 33.4 °F 45% 30.23 in 10.0 mi NNE 3.5 mph - N/A   Clear
10:35 PM 53.6 °F - 33.1 °F 46% 30.23 in 10.0 mi NNE 8.1 mph - N/A   Clear
11:15 PM 51.6 °F - 33.3 °F 50% 30.24 in 10.0 mi NNE 5.8 mph - N/A   Clear
11:35 PM 50.0 °F - 33.3 °F 53% 30.24 in 10.0 mi North 3.5 mph - N/A   Clear
11:55 PM 48.9 °F - 33.1 °F 54% 30.24 in 10.0 mi NNW 5.8 mph - N/A   Clear